Regional Weather Roundup
Issued by NWS Albany, NY

Home | Current Version | Previous Version | Text Only | Print | Product List | Glossary On
Versions: 1 2 3 4 5 6 7 8 9 10 11 12 13 14 15 16 17 18 19 20 21 22 23 24 25 26 27 28 29 30 31 32 33 34 35 36 37 38 39 40 41 42 43 44 45 46 47 48 49 50
000
ASUS41 KALY 280710
RWRALY

NEW YORK STATE HOURLY WEATHER ROUNDUP
NATIONAL WEATHER SERVICE ALBANY NY
300 AM EDT TUE JUL 28 2015

NOTE: "FAIR" INDICATES FEW OR NO CLOUDS BELOW 12,000 FEET WITH NO
SIGNIFICANT WEATHER AND/OR NO OBSTRUCTIONS TO VISIBILITY.

NYZ032-033-038>043-046>054-057>066-NYZ062>081-280800-
EAST


CITY           SKY/WX    TMP DP  RH WIND       PRES   REMARKS
ALBANY         PTCLDY    72  67  84 S3        30.00F
GLENS FALLS    FOG       65  63  93 CALM      29.99F VSB 3/4
POUGHKEEPSIE   CLEAR     69  66  90 CALM      30.00S
NEWBURGH       CLEAR     68  68 100 CALM      30.03S
MONTGOMERY     PTCLDY    65  64  97 CALM      30.01F
WHITE PLAINS   CLEAR     70  68  93 CALM      30.01S
ISLIP          MOCLDY    74  71  91 SW8       29.99F
NEW YORK CITY  PTCLDY    77  68  73 SW6       29.99F
CENTRAL PARK   CLEAR     76  67  73 VRB6      30.03F
$$

NYZ005>009-017-018-044>046-055-056-280800-
CENTRAL


CITY           SKY/WX    TMP DP  RH WIND       PRES   REMARKS
FULTON         CLEAR     62  60  93 CALM      30.01S FOG
SYRACUSE       PTCLDY    67  65  93 E3        30.01S
ROME           CLEAR     61  59  93 CALM      30.03S
ELMIRA         CLEAR     60  60 100 CALM      30.06S
BINGHAMTON     CLEAR     66  64  93 W5        30.08R
MONTICELLO     CLOUDY    64  63  94 CALM      30.08S VSB 1/4
$$

NYZ026>034-041>043-280800-
NORTH


CITY           SKY/WX    TMP DP  RH WIND       PRES   REMARKS
WATERTOWN      PTCLDY    66  56  70 CALM      29.99S
FORT DRUM      NOT AVBL
MASSENA        PTCLDY    67  61  81 CALM      29.98S
SARANAC LAKE   CLOUDY    62  61  96 CALM      30.03F
PLATTSBURGH    CLOUDY    67  64  90 VRB5      29.96F
$$

NYZ001>004-010>016-019>021-280800-
WEST


CITY           SKY/WX    TMP DP  RH WIND       PRES   REMARKS
NIAGARA FALLS  CLEAR     72  61  68 CALM      30.02F
BUFFALO        CLEAR     71  64  78 S3        30.03F
DUNKIRK        CLEAR     65  61  87 S5        30.04F
JAMESTOWN      CLEAR     64  61  88 CALM      30.09F
WELLSVILLE     CLEAR     63  59  87 CALM      30.13S
ROCHESTER      PTCLDY    68  64  87 SW5       30.03S
PENN YAN       CLEAR     68  64  87 SW5       30.05S
$$

             KEY
       WCI = WIND CHILL INDEX
       VSB = VISIBILITY
       HX  = HEAT INDEX
$$


USA.gov is the U.S. government's official web portal to all federal, state and local government web resources and services.